Time,TemperatureF,DewpointF,PressureIn,WindDirection,WindDirectionDegrees,WindSpeedMPH,WindSpeedGustMPH,Humidity,HourlyPrecipIn,Conditions,Clouds,dailyrainin,SoftwareType,DateUTC
2013-02-09 00:22:00,27.0,-99.9,29.72,NE,34,-999.0,-999.0,-999,-99.99,,,-99.99,,2013-02-09 05:22:00,
2013-02-09 00:32:00,27.0,-99.9,29.72,NE,34,-999.0,-999.0,-999,-99.99,,,-99.99,,2013-02-09 05:32:00,
2013-02-09 00:42:00,27.0,-99.9,29.72,NE,34,-999.0,-999.0,-999,-99.99,,,-99.99,,2013-02-09 05:42:00,
2013-02-09 00:52:00,27.0,-99.9,29.74,NE,34,-999.0,-999.0,-999,-99.99,,,-99.99,,2013-02-09 05:52:00,
2013-02-09 01:22:00,27.0,-99.9,29.74,NE,34,-999.0,-999.0,-999,-99.99,,,-99.99,,2013-02-09 06:22:00,
2013-02-09 01:32:00,27.0,-99.9,29.74,NE,34,-999.0,-999.0,-999,-99.99,,,-99.99,,2013-02-09 06:32:00,
2013-02-09 01:42:00,27.0,-99.9,29.74,NE,34,-999.0,-999.0,-999,-99.99,,,-99.99,,2013-02-09 06:42:00,
2013-02-09 01:52:00,28.0,-99.9,29.75,NE,34,-999.0,-999.0,-999,-99.99,,,-99.99,,2013-02-09 06:52:00,
2013-02-09 02:32:00,28.0,-99.9,29.75,NE,34,-999.0,-999.0,-999,-99.99,,,-99.99,,2013-02-09 07:32:00,
2013-02-09 02:42:00,28.0,-99.9,29.75,NE,34,-999.0,-999.0,-999,-99.99,,,-99.99,,2013-02-09 07:42:00,
2013-02-09 02:52:00,28.0,-99.9,29.76,NE,34,-999.0,-999.0,-999,-99.99,,,-99.99,,2013-02-09 07:52:00,
2013-02-09 03:22:00,28.0,-99.9,29.76,NE,34,-999.0,-999.0,-999,-99.99,,,-99.99,,2013-02-09 08:22:00,
2013-02-09 03:32:00,28.0,-99.9,29.76,NE,34,-999.0,-999.0,-999,-99.99,,,-99.99,,2013-02-09 08:32:00,
2013-02-09 03:42:00,28.0,-99.9,29.76,NE,34,-999.0,-999.0,-999,-99.99,,,-99.99,,2013-02-09 08:42:00,
2013-02-09 03:52:00,28.0,-99.9,29.78,NE,34,-999.0,-999.0,-999,-99.99,,,-99.99,,2013-02-09 08:52:00,
2013-02-09 04:22:00,28.0,-99.9,29.78,NE,34,-999.0,-999.0,-999,-99.99,,,-99.99,,2013-02-09 09:22:00,
2013-02-09 04:32:00,28.0,-99.9,29.78,NE,34,-999.0,-999.0,-999,-99.99,,,-99.99,,2013-02-09 09:32:00,
2013-02-09 04:42:00,28.0,-99.9,29.78,NE,34,-999.0,-999.0,-999,-99.99,,,-99.99,,2013-02-09 09:42:00,
2013-02-09 04:52:00,28.0,-99.9,29.80,NE,34,-999.0,-999.0,-999,-99.99,,,-99.99,,2013-02-09 09:52:00,
2013-02-09 05:32:00,28.0,-99.9,29.80,NE,34,-999.0,-999.0,-999,-99.99,,,-99.99,,2013-02-09 10:32:00,
2013-02-09 05:52:00,27.0,-99.9,29.81,NE,34,-999.0,-999.0,-999,-99.99,,,-99.99,,2013-02-09 10:52:00,
2013-02-09 06:22:00,27.0,-99.9,29.81,NE,34,-999.0,-999.0,-999,-99.99,,,-99.99,,2013-02-09 11:22:00,
2013-02-09 06:32:00,27.0,-99.9,29.81,NE,34,-999.0,-999.0,-999,-99.99,,,-99.99,,2013-02-09 11:32:00,
2013-02-09 06:42:00,27.0,-99.9,29.81,NE,34,-999.0,-999.0,-999,-99.99,,,-99.99,,2013-02-09 11:42:00,
2013-02-09 06:52:00,28.0,-99.9,29.83,NNW,342,13.0,14.0,-999,-99.99,,,-99.99,,2013-02-09 11:52:00,
2013-02-09 07:22:00,28.0,-99.9,29.83,NNW,342,13.0,14.0,-999,-99.99,,,-99.99,,2013-02-09 12:22:00,
2013-02-09 07:32:00,28.0,-99.9,29.83,NNW,342,13.0,14.0,-999,-99.99,,,-99.99,,2013-02-09 12:32:00,
2013-02-09 07:42:00,28.0,-99.9,29.83,NNW,342,13.0,14.0,-999,-99.99,,,-99.99,,2013-02-09 12:42:00,
2013-02-09 07:52:00,28.0,-99.9,29.88,NW,313,-999.0,15.0,-999,-99.99,,,-99.99,,2013-02-09 12:52:00,
2013-02-09 08:22:00,28.0,-99.9,29.88,NW,313,-999.0,15.0,-999,-99.99,,,-99.99,,2013-02-09 13:22:00,
2013-02-09 08:32:00,28.0,-99.9,29.88,NW,313,-999.0,15.0,-999,-99.99,,,-99.99,,2013-02-09 13:32:00,
2013-02-09 08:42:00,28.0,-99.9,29.88,NW,313,-999.0,15.0,-999,-99.99,,,-99.99,,2013-02-09 13:42:00,
2013-02-09 08:52:00,27.0,-99.9,29.92,North,0,-999.0,15.0,-999,-99.99,,,-99.99,,2013-02-09 13:52:00,
2013-02-09 09:22:00,27.0,-99.9,29.92,North,0,-999.0,15.0,-999,-99.99,,,-99.99,,2013-02-09 14:22:00,
2013-02-09 09:32:00,27.0,-99.9,29.92,North,0,-999.0,15.0,-999,-99.99,,,-99.99,,2013-02-09 14:32:00,
2013-02-09 09:42:00,27.0,-99.9,29.92,North,0,-999.0,15.0,-999,-99.99,,,-99.99,,2013-02-09 14:42:00,
2013-02-09 09:52:00,26.0,-99.9,29.95,North,6,6.0,18.0,-999,-99.99,,,-99.99,,2013-02-09 14:52:00,
2013-02-09 10:32:00,26.0,-99.9,29.95,North,6,6.0,18.0,-999,-99.99,,,-99.99,,2013-02-09 15:32:00,
2013-02-09 10:42:00,26.0,-99.9,29.95,North,6,6.0,18.0,-999,-99.99,,,-99.99,,2013-02-09 15:42:00,
2013-02-09 10:52:00,28.0,-99.9,29.98,WNW,285,-999.0,24.0,-999,-99.99,,,-99.99,,2013-02-09 15:52:00,
2013-02-09 11:22:00,28.0,-99.9,29.98,WNW,285,-999.0,24.0,-999,-99.99,,,-99.99,,2013-02-09 16:22:00,
2013-02-09 11:32:00,28.0,-99.9,29.98,WNW,285,-999.0,24.0,-999,-99.99,,,-99.99,,2013-02-09 16:32:00,
2013-02-09 11:42:00,28.0,-99.9,29.98,WNW,285,-999.0,24.0,-999,-99.99,,,-99.99,,2013-02-09 16:42:00,
2013-02-09 11:52:00,29.0,-99.9,29.99,WNW,292,10.0,32.0,-999,-99.99,,,-99.99,,2013-02-09 16:52:00,
2013-02-09 12:22:00,29.0,-99.9,29.99,WNW,292,10.0,32.0,-999,-99.99,,,-99.99,,2013-02-09 17:22:00,
2013-02-09 12:32:00,29.0,-99.9,29.99,WNW,292,10.0,32.0,-999,-99.99,,,-99.99,,2013-02-09 17:32:00,
2013-02-09 12:42:00,29.0,-99.9,29.99,WNW,292,10.0,32.0,-999,-99.99,,,-99.99,,2013-02-09 17:42:00,
2013-02-09 12:52:00,31.0,-99.9,30.00,WNW,298,-999.0,23.0,-999,-99.99,,,-99.99,,2013-02-09 17:52:00,
2013-02-09 13:23:00,31.0,-99.9,30.00,WNW,298,-999.0,23.0,-999,-99.99,,,-99.99,,2013-02-09 18:23:00,
2013-02-09 13:32:00,31.0,-99.9,30.00,WNW,298,-999.0,23.0,-999,-99.99,,,-99.99,,2013-02-09 18:32:00,
2013-02-09 13:42:00,31.0,-99.9,30.00,WNW,298,-999.0,23.0,-999,-99.99,,,-99.99,,2013-02-09 18:42:00,
2013-02-09 13:52:00,33.0,-99.9,30.01,North,1,10.0,12.0,-999,-99.99,,,-99.99,,2013-02-09 18:52:00,
2013-02-09 14:22:00,33.0,-99.9,30.01,North,1,10.0,12.0,-999,-99.99,,,-99.99,,2013-02-09 19:22:00,
2013-02-09 14:32:00,33.0,-99.9,30.01,North,1,10.0,12.0,-999,-99.99,,,-99.99,,2013-02-09 19:32:00,
2013-02-09 14:42:00,33.0,-99.9,30.01,North,1,10.0,12.0,-999,-99.99,,,-99.99,,2013-02-09 19:42:00,
2013-02-09 14:52:00,33.0,-99.9,30.04,WNW,295,15.0,29.0,-999,-99.99,,,-99.99,,2013-02-09 19:52:00,
2013-02-09 15:22:00,33.0,-99.9,30.04,WNW,295,15.0,29.0,-999,-99.99,,,-99.99,,2013-02-09 20:22:00,
2013-02-09 15:32:00,33.0,-99.9,30.04,WNW,295,15.0,29.0,-999,-99.99,,,-99.99,,2013-02-09 20:32:00,
2013-02-09 15:42:00,33.0,-99.9,30.04,WNW,295,15.0,29.0,-999,-99.99,,,-99.99,,2013-02-09 20:42:00,
2013-02-09 15:52:00,31.0,-99.9,30.06,NNW,331,21.0,21.0,-999,-99.99,,,-99.99,,2013-02-09 20:52:00,
2013-02-09 16:22:00,31.0,-99.9,30.06,NNW,331,21.0,21.0,-999,-99.99,,,-99.99,,2013-02-09 21:22:00,
2013-02-09 16:32:00,31.0,-99.9,30.06,NNW,331,21.0,21.0,-999,-99.99,,,-99.99,,2013-02-09 21:32:00,
2013-02-09 16:42:00,31.0,-99.9,30.06,NNW,331,21.0,21.0,-999,-99.99,,,-99.99,,2013-02-09 21:42:00,
2013-02-09 16:52:00,29.0,-99.9,30.10,NW,312,6.0,24.0,-999,-99.99,,,-99.99,,2013-02-09 21:52:00,
2013-02-09 17:22:00,29.0,-99.9,30.10,NW,312,6.0,24.0,-999,-99.99,,,-99.99,,2013-02-09 22:22:00,
2013-02-09 17:32:00,29.0,-99.9,30.10,NW,312,6.0,24.0,-999,-99.99,,,-99.99,,2013-02-09 22:32:00,
2013-02-09 17:42:00,29.0,-99.9,30.10,NW,312,6.0,24.0,-999,-99.99,,,-99.99,,2013-02-09 22:42:00,
2013-02-09 17:52:00,28.0,-99.9,30.14,NNW,346,9.0,25.0,-999,-99.99,,,-99.99,,2013-02-09 22:52:00,
2013-02-09 18:22:00,28.0,-99.9,30.14,NNW,346,9.0,25.0,-999,-99.99,,,-99.99,,2013-02-09 23:22:00,
2013-02-09 18:32:00,28.0,-99.9,30.14,NNW,346,9.0,25.0,-999,-99.99,,,-99.99,,2013-02-09 23:32:00,
2013-02-09 18:42:00,28.0,-99.9,30.14,NNW,346,9.0,25.0,-999,-99.99,,,-99.99,,2013-02-09 23:42:00,
2013-02-09 18:52:00,27.0,-99.9,30.16,North,352,12.0,13.0,-999,-99.99,,,-99.99,,2013-02-09 23:52:00,
2013-02-09 19:22:00,27.0,-99.9,30.16,North,352,12.0,13.0,-999,-99.99,,,-99.99,,2013-02-10 00:22:00,
2013-02-09 19:32:00,27.0,-99.9,30.16,North,352,12.0,13.0,-999,-99.99,,,-99.99,,2013-02-10 00:32:00,
2013-02-09 19:42:00,27.0,-99.9,30.16,North,352,12.0,13.0,-999,-99.99,,,-99.99,,2013-02-10 00:42:00,
2013-02-09 19:52:00,26.0,-99.9,30.20,WNW,291,-999.0,14.0,-999,-99.99,,,-99.99,,2013-02-10 00:52:00,
2013-02-09 20:22:00,26.0,-99.9,30.20,WNW,291,-999.0,14.0,-999,-99.99,,,-99.99,,2013-02-10 01:22:00,
2013-02-09 20:32:00,26.0,-99.9,30.20,WNW,291,-999.0,14.0,-999,-99.99,,,-99.99,,2013-02-10 01:32:00,
2013-02-09 20:42:00,26.0,-99.9,30.20,WNW,291,-999.0,14.0,-999,-99.99,,,-99.99,,2013-02-10 01:42:00,
2013-02-09 20:52:00,24.0,-99.9,30.24,NW,319,-999.0,13.0,-999,-99.99,,,-99.99,,2013-02-10 01:52:00,
2013-02-09 21:22:00,24.0,-99.9,30.24,NW,319,-999.0,13.0,-999,-99.99,,,-99.99,,2013-02-10 02:22:00,
2013-02-09 21:32:00,24.0,-99.9,30.24,NW,319,-999.0,13.0,-999,-99.99,,,-99.99,,2013-02-10 02:32:00,
2013-02-09 21:42:00,24.0,-99.9,30.24,NW,319,-999.0,13.0,-999,-99.99,,,-99.99,,2013-02-10 02:42:00,
2013-02-09 21:52:00,23.0,-99.9,30.28,NW,326,5.0,15.0,-999,-99.99,,,-99.99,,2013-02-10 02:52:00,
2013-02-09 22:22:00,23.0,-99.9,30.28,NW,326,5.0,15.0,-999,-99.99,,,-99.99,,2013-02-10 03:22:00,
2013-02-09 22:32:00,23.0,-99.9,30.28,NW,326,5.0,15.0,-999,-99.99,,,-99.99,,2013-02-10 03:32:00,
2013-02-09 22:42:00,23.0,-99.9,30.28,NW,326,5.0,15.0,-999,-99.99,,,-99.99,,2013-02-10 03:42:00,
2013-02-09 22:52:00,21.0,-99.9,30.29,NNW,341,-999.0,8.0,-999,-99.99,,,-99.99,,2013-02-10 03:52:00,
2013-02-09 23:22:00,21.0,-99.9,30.29,NNW,341,-999.0,8.0,-999,-99.99,,,-99.99,,2013-02-10 04:22:00,
2013-02-09 23:32:00,21.0,-99.9,30.29,NNW,341,-999.0,8.0,-999,-99.99,,,-99.99,,2013-02-10 04:32:00,
2013-02-09 23:42:00,21.0,-99.9,30.29,NNW,341,-999.0,8.0,-999,-99.99,,,-99.99,,2013-02-10 04:42:00,
2013-02-09 23:52:00,20.0,-99.9,30.32,NNW,342,-999.0,5.0,-999,-99.99,,,-99.99,,2013-02-10 04:52:00,